This demonstration page uses our WeatherBlox Daily Observations layout. Learn more.

Left ArrowRight Arrow

Hourly Observations for November 30, 2016

Temp ( °F °C ) Dew Point ( °F °C ) Humidity (%) Winds ( mph kmh ) Pressure ( in mb ) Visibility ( mi km ) Precip ( " mm )
12:51 am 00:51 Clear 30 -1.1 19 -7.2 64 64 ESE 3 6 30.07 1018 10 16.0934 N/A
1:51 am 01:51 Clear 29 -1.7 19 -7.2 66 66 N N/A 30.07 1018 10 16.0934 N/A
2:51 am 02:51 undefined N/A N/A N/A undefined N/A N/A N/A N/A
3:51 am 03:51 Clear 25 -3.9 18 -7.8 75 75 N N/A 30.08 1019 10 16.0934 N/A
4:51 am 04:51 Clear 27 -2.8 18 -7.8 69 69 E 8 13 30.08 1019 10 16.0934 N/A
5:51 am 05:51 Clear 28 -2.2 19 -7.2 69 69 E 10 17 30.1 1019 10 16.0934 N/A
6:51 am 06:51 Clear 28 -2.2 18 -7.8 66 66 E 7 11 30.11 1020 10 16.0934 N/A
7:51 am 07:51 Sunny 27 -2.8 19 -7.2 72 72 WNW 3 6 30.13 1020 10 16.0934 N/A
8:51 am 08:51 Sunny 36 2.2 20 -6.7 52 52 N 3 6 30.14 1021 10 16.0934 N/A
9:51 am 09:51 Sunny 46 7.8 19 -7.2 34 34 ESE 9 15 30.11 1020 10 16.0934 N/A
10:51 am 10:51 Sunny 48 8.9 16 -8.9 28 28 SE 8 13 30.1 1019 10 16.0934 N/A
11:51 am 11:51 Sunny 51 10.6 17 -8.3 26 26 E 6 9 30.07 1018 10 16.0934 N/A
12:51 pm 12:51 Sunny 52 11.1 16 -8.9 24 24 SSE 8 13 30.04 1017 10 16.0934 N/A
1:51 pm 13:51 Sunny 53 11.7 15 -9.4 22 22 VRB 6 9 29.99 1016 10 16.0934 N/A
2:51 pm 14:51 Sunny 54 12.2 13 -10.6 19 19 S 8 13 29.94 1014 10 16.0934 N/A
3:51 pm 15:51 Sunny 54 12.2 9 -12.8 16 16 N N/A 29.98 1015 10 16.0934 N/A
4:51 pm 16:51 Sunny 52 11.1 14 -10 22 22 WSW 5 7 29.98 1015 10 16.0934 N/A
5:51 pm 17:51 Clear 47 8.3 15 -9.4 28 28 W 5 7 29.98 1015 10 16.0934 N/A
6:51 pm 18:51 Clear 39 3.9 18 -7.8 43 43 N N/A 30 1016 10 16.0934 N/A
7:51 pm 19:51 Clear 37 2.8 18 -7.8 46 46 E 5 7 30.02 1017 10 16.0934 N/A
8:51 pm 20:51 Clear with Light Rain 36 2.2 17 -8.3 46 46 E 7 11 29.99 1016 10 16.0934 N/A
9:51 pm 21:51 Clear 33 0.6 18 -7.8 54 54 ESE 5 7 29.97 1015 10 16.0934 N/A
10:51 pm 22:51 Clear 32 undefined 17 -8.3 54 54 SE 5 7 29.97 1015 10 16.0934 N/A
11:51 pm 23:51 Clear 30 -1.1 17 -8.3 58 58 N N/A 29.97 1015 10 16.0934 N/A

Powered by AerisWeather